星链-31557 (STARLINK-31557 )

导读 | 星芒AI

STARLINK-31557 是 SpaceX Starlink 卫星互联网项目中的一颗低轨通信卫星。该卫星属于 Starlink 群体部署的一部分,旨在为全球用户提供高速、低延迟的互联网服务。它运行在约 550 公里的近地轨道上,采用先进推进系统和激光通信技术,以提高网络效率和稳定性。作为 Starlink 计划的重要组成部分,该卫星有助于扩大覆盖范围,特别是在偏远和网络基础设施薄弱的地区。

基本信息
目录编号:
59357
目录名称:
STARLINK-31557
国际标识:
2024-060K
轨道中心:
EARTH
卫星名称:
星链-31557
卫星全名:
星链-31557 (STARLINK-31557 )
卫星状态:
在轨 (已飞行580 天)
发射日期:
2024-03-31 UTC
国别 :
美国 (US)
星等 :
--
轨道信息
数据来源 国际轨道数据 AOE轨道数据
星历时间 2025-10-30T12:52:57+0800
2天前
查看轨道信息
2025-10-31T21:00:00+0800
1天前
查看轨道信息
半长轴 6861.164km 6861.183km
偏心率 0.0001087 0.0001345
轨道倾角 43.000° 43.003°
近地点辐角 257.072° 250.011°
升交点赤经 272.678° 265.118°
平近点角 103.001° 278.038°
近地点 482.283km 482.125km
远地点 483.775km 483.971km
周期 94.266分钟 94.267分钟
每日圈数 15.275876 15.275811
详细信息
固有亮度:
5
最大亮度:
0.3
卫星平台:
Starlink v2.0 mini
覆盖范围:
全球
运营商:
太空探索技术公司
运营商所在国:
美国
制造商(研发单位):
太空探索技术公司
制造商所在国:
美国
使用方式:
暂无
卫星简介
星链(Starlink)计划是由太空探索技术公司(SpaceX)提出的一个巨型低轨卫星互联网星座项目,计划在2019年至2024年间在太空搭建由约1.2万颗卫星组成的“星链”网络,其中1584颗将部署在地球上空550千米处的近地轨道,并从2020年开始工作。该卫星仍在工作。
2D轨道图
3D轨道图
轨道高度分析图
轨道倾角分析图
轨道综合分析图
查看轨道综合分析图